DW5321 Paradera AW current weather conditions

sailwx.info

Wind from 119 at 12 knots gusting 19

Air temperature 28.9° C
Dewpoint 23.8° C

Last reported at 2015-Feb-27 15:36 UTC.
Time now 2015-Feb-27 16:54 UTC

Location: N 12°33' W 070°00'.
View on Google Maps.

See reports from other nearby stations

  
Tides and Currents Weather Stations Pressure Air Temp Water Temp Dewpoint Dewpoint Depression Visibility Wind Speed Wind Dir Waves Ship Positions
date/time (UTC)wind fromknots sea level pressurealtimeterstation pressurevisibilityair tempwater tempwave heightnotes
2015-Feb-27 15:36 119 12 gusting 19 28.9
2015-Feb-27 15:21 108 12 gusting 19 28.9
2015-Feb-27 15:06 079 8 gusting 19 28.9
2015-Feb-27 14:51 067 9 gusting 19 28.9
2015-Feb-27 14:36 096 11 gusting 19 28.9
2015-Feb-27 14:20 089 9 gusting 19 28.3
2015-Feb-27 14:05 099 15 gusting 22 27.8
2015-Feb-27 13:50 072 9 gusting 17 28.3
2015-Feb-27 13:35 120 13 gusting 19 27.8
2015-Feb-27 13:20 098 12 gusting 18 27.8
2015-Feb-27 13:05 077 9 gusting 19 27.8
2015-Feb-27 12:50 099 13 gusting 19 27.2
2015-Feb-27 12:35 127 9 gusting 18 27.2
2015-Feb-27 12:20 105 7 gusting 15 27.2
2015-Feb-27 12:05 079 8 gusting 15 26.7
2015-Feb-27 11:50 089 9 gusting 15 26.1
2015-Feb-27 11:35 104 6 gusting 13 26.1
2015-Feb-27 11:20 129 10 gusting 18 26.1
2015-Feb-27 11:05 104 9 gusting 13 25.6
2015-Feb-27 10:50 088 7 gusting 12 25.6
2015-Feb-27 10:35 125 8 gusting 16 25.6
2015-Feb-27 10:20 129 7 gusting 16 26.1
2015-Feb-27 10:05 104 6 gusting 13 26.1
2015-Feb-27 09:50 098 8 gusting 15 26.1
2015-Feb-27 09:35 094 9 gusting 16 25.6
2015-Feb-27 09:20 077 8 gusting 13 25.6
2015-Feb-27 09:05 091 6 gusting 12 25.6
2015-Feb-27 08:50 066 4 gusting 13 25.6
2015-Feb-27 08:35 103 13 gusting 18 26.1
2015-Feb-27 08:20 119 8 gusting 13 26.1
2015-Feb-27 08:05 114 8 gusting 13 26.1
2015-Feb-27 07:50 103 7 gusting 13 26.1
2015-Feb-27 07:35 075 7 gusting 14 26.1
2015-Feb-27 07:20 061 7 gusting 13 26.1
2015-Feb-27 07:05 077 6 gusting 18 26.1
2015-Feb-27 06:50 099 8 gusting 15 26.1
2015-Feb-27 06:35 040 8 gusting 16 26.1
2015-Feb-27 06:19 063 12 gusting 17 26.1
2015-Feb-27 06:04 108 11 gusting 19 26.1
2015-Feb-27 05:49 095 11 gusting 18 26.1
2015-Feb-27 05:34 099 11 gusting 18 26.1
2015-Feb-27 05:19 110 9 gusting 19 26.1
2015-Feb-27 05:04 099 10 gusting 19 26.1
2015-Feb-27 04:49 150 7 gusting 19 26.1
2015-Feb-27 04:34 103 11 gusting 15 26.1
2015-Feb-27 04:19 072 8 gusting 16 26.1
2015-Feb-27 04:04 101 9 gusting 13 26.1
2015-Feb-27 03:49 122 8 gusting 16 26.1
2015-Feb-27 03:34 114 8 gusting 16 26.1
2015-Feb-27 03:19 096 9 gusting 18 26.1
2015-Feb-27 03:04 113 9 gusting 19 26.1
2015-Feb-27 02:49 143 8 gusting 17 26.1
2015-Feb-27 02:34 091 11 gusting 17 26.1
2015-Feb-27 02:19 041 8 gusting 14 26.1
2015-Feb-27 02:04 104 11 gusting 16 26.1
2015-Feb-27 01:49 103 6 gusting 14 26.1
2015-Feb-27 01:34 105 9 gusting 17 26.1
2015-Feb-27 01:19 079 11 gusting 18 26.1
2015-Feb-27 01:04 089 8 gusting 15 26.1
2015-Feb-27 00:49 072 7 gusting 15 26.1
2015-Feb-27 00:34 088 9 gusting 14 26.1
2015-Feb-27 00:19 105 11 gusting 16 26.1
2015-Feb-27 00:04 090 8 gusting 15 26.7
2015-Feb-26 23:49 072 7 gusting 15 26.7
2015-Feb-26 23:34 060 8 gusting 19 26.7
2015-Feb-26 23:19 167 10 gusting 14 26.7
2015-Feb-26 23:04 083 8 gusting 19 26.7
2015-Feb-26 22:49 066 7 gusting 16 26.7
2015-Feb-26 22:34 079 11 gusting 19 27.2
2015-Feb-26 22:19 073 9 gusting 17 27.2
2015-Feb-26 22:04 096 10 gusting 19 27.2
2015-Feb-26 21:49 107 12 gusting 21 27.8
2015-Feb-26 21:34 098 11 gusting 19 27.8
2015-Feb-26 21:19 104 12 gusting 20 27.8
2015-Feb-26 21:04 058 10 gusting 19 27.8
2015-Feb-26 20:49 086 10 gusting 21 27.8
2015-Feb-26 20:34 081 11 gusting 18 28.3
2015-Feb-26 20:19 072 7 gusting 19 28.3
2015-Feb-26 20:04 113 13 gusting 22 28.9
2015-Feb-26 19:49 094 14 gusting 19 28.9
2015-Feb-26 19:34 074 11 gusting 20 29.4
2015-Feb-26 19:19 113 10 gusting 22 29.4
2015-Feb-26 19:04 102 13 gusting 22 28.9
2015-Feb-26 18:49 102 11 gusting 18 28.9
2015-Feb-26 18:34 156 13 gusting 22 28.9
2015-Feb-26 18:19 139 13 gusting 21 28.9
2015-Feb-26 18:04 089 10 gusting 19 29.4
2015-Feb-26 17:48 079 13 gusting 22 28.9
2015-Feb-26 17:33 096 13 gusting 26 29.4
2015-Feb-26 17:18 105 11 gusting 19 30.0
2015-Feb-26 17:03 107 11 gusting 23 29.4
2015-Feb-26 16:48 099 10 gusting 22 29.4
2015-Feb-26 16:34 134 15 gusting 21 28.9
2015-Feb-26 16:19 158 12 gusting 19 29.4
2015-Feb-26 16:04 111 13 gusting 19 29.4
2015-Feb-26 15:49 029 11 gusting 27 29.4
2015-Feb-26 15:34 103 16 gusting 25 28.9
2015-Feb-26 15:19 128 14 gusting 23 28.9
2015-Feb-26 15:04 105 13 gusting 22 28.9
2015-Feb-26 14:49 074 12 gusting 21 28.9
2015-Feb-26 14:34 115 14 gusting 22 28.9
2015-Feb-26 14:19 101 13 28.3
2015-Feb-26 14:04 105 15 gusting 20 28.3
2015-Feb-26 13:49 101 9 gusting 21 28.3
2015-Feb-26 13:34 095 11 gusting 17 27.8
2015-Feb-26 13:19 104 11 gusting 19 27.8
2015-Feb-26 13:04 089 13 gusting 24 27.2
2015-Feb-26 12:49 103 14 gusting 22 27.2
2015-Feb-26 12:34 117 9 gusting 19 26.7
2015-Feb-26 12:19 114 13 gusting 19 26.7
2015-Feb-26 12:04 123 11 gusting 21 26.7
2015-Feb-26 11:49 099 11 gusting 19 26.1
2015-Feb-26 11:34 104 10 gusting 14 26.1
2015-Feb-26 11:19 107 9 gusting 18 26.1
2015-Feb-26 11:03 093 11 gusting 19 26.1
2015-Feb-26 10:48 120 9 gusting 19 26.1
2015-Feb-26 10:33 110 7 gusting 17 26.1
2015-Feb-26 10:18 089 8 gusting 16 26.1
2015-Feb-26 10:03 087 8 gusting 16 26.1
2015-Feb-26 09:48 108 10 gusting 19 26.1
2015-Feb-26 09:33 145 8 gusting 15 26.1
2015-Feb-26 09:18 103 9 gusting 17 26.1
2015-Feb-26 09:03 109 6 gusting 18 26.1
2015-Feb-26 08:48 111 8 gusting 14 26.1
2015-Feb-26 08:33 089 8 gusting 16 26.1
2015-Feb-26 08:18 084 8 gusting 16 26.1
2015-Feb-26 08:03 124 10 gusting 17 26.1
2015-Feb-26 07:48 101 9 gusting 17 26.1
2015-Feb-26 07:33 094 8 gusting 17 26.1
2015-Feb-26 07:18 073 6 gusting 15 26.1
2015-Feb-26 07:03 079 6 gusting 15 26.1
2015-Feb-26 06:48 084 10 gusting 17 26.1
2015-Feb-26 06:33 074 8 gusting 16 26.1
2015-Feb-26 06:18 094 6 gusting 13 26.1
2015-Feb-26 06:03 090 8 gusting 13 26.1
2015-Feb-26 05:48 113 9 gusting 16 26.1
2015-Feb-26 05:33 075 8 gusting 13 26.1
2015-Feb-26 05:18 100 8 gusting 15 26.1
2015-Feb-26 05:03 082 9 gusting 19 26.1
2015-Feb-26 04:48 106 8 gusting 15 26.1
2015-Feb-26 04:33 068 9 gusting 15 26.1
2015-Feb-26 04:18 082 10 gusting 16 26.1
2015-Feb-26 04:03 109 6 gusting 17 26.1
2015-Feb-26 03:48 071 7 gusting 15 26.1
2015-Feb-26 03:33 086 7 gusting 14 26.1
2015-Feb-26 03:18 072 6 gusting 17 26.1
2015-Feb-26 03:03 057 10 gusting 14 26.1
2015-Feb-26 02:48 069 8 gusting 15 26.1
2015-Feb-26 02:33 078 11 gusting 15 26.1
2015-Feb-26 02:18 084 8 gusting 14 26.1
2015-Feb-26 02:03 086 9 gusting 17 26.1
2015-Feb-26 01:48 096 9 gusting 17 26.1
2015-Feb-26 01:33 089 7 gusting 15 26.1
2015-Feb-26 01:18 127 10 gusting 20 26.1
2015-Feb-26 01:03 094 8 gusting 18 26.1
2015-Feb-26 00:48 117 9 gusting 16 26.1
2015-Feb-26 00:33 079 6 gusting 14 26.7
2015-Feb-26 00:18 084 6 gusting 14 26.7
2015-Feb-25 23:48 082 6 gusting 16 26.7
2015-Feb-25 23:33 094 7 gusting 16 26.7
2015-Feb-25 23:18 093 7 gusting 17 26.7
2015-Feb-25 23:03 114 7 gusting 14 26.7
2015-Feb-25 22:48 120 7 gusting 16 26.7
2015-Feb-25 22:33 063 8 gusting 15 27.2
2015-Feb-25 22:17 077 9 gusting 15 27.2
2015-Feb-25 22:02 096 8 gusting 15 27.2
2015-Feb-25 21:47 105 9 gusting 15 27.8
2015-Feb-25 21:32 077 11 gusting 19 27.8
2015-Feb-25 21:18 105 12 gusting 20 27.8
2015-Feb-25 21:02 077 10 gusting 14 27.8
2015-Feb-25 20:47 088 11 gusting 19 27.8
2015-Feb-25 20:32 122 9 gusting 18 27.8
2015-Feb-25 20:17 100 8 gusting 17 28.3
2015-Feb-25 20:02 099 13 gusting 19 28.9
2015-Feb-25 19:47 083 8 gusting 17 28.9
2015-Feb-25 19:32 122 11 gusting 19 28.9
2015-Feb-25 19:17 060 12 gusting 18 28.9
2015-Feb-25 19:02 096 11 gusting 17 28.9
2015-Feb-25 18:47 068 11 gusting 17 28.9
2015-Feb-25 18:32 100 11 gusting 19 28.9
2015-Feb-25 18:17 091 10 gusting 19 28.9
2015-Feb-25 18:02 093 13 gusting 20 28.9
2015-Feb-25 17:47 101 11 gusting 22 28.9
2015-Feb-25 17:32 064 12 gusting 19 28.9
2015-Feb-25 17:17 114 13 gusting 20 28.9
2015-Feb-25 17:02 109 10 gusting 20 29.4
2015-Feb-25 16:47 100 13 gusting 21 28.9
2015-Feb-25 16:32 080 12 gusting 21 29.4
2015-Feb-25 16:16 081 9 gusting 18 28.9
2015-Feb-25 16:01 094 10 gusting 19 29.4